Regional Weather Roundup
Issued by NWS

Home | Current Version | Previous Version | Graphics & Text | Print | Product List | Glossary Off
Versions: 1 2 3 4 5 6 7 8 9 10 11 12 13 14 15 16 17 18 19 20 21 22 23 24 25 26 27 28 29 30 31 32 33 34 35 36 37 38 39 40 41 42 43 44 45 46 47 48 49 50

000
ASUS43 KDTX 201510
RWRMI
MICHIGAN HOURLY REGIONAL WEATHER ROUNDUP
NATIONAL WEATHER SERVICE DETROIT/PONTIAC MI
1100 AM EDT SUN AUG 20 2017

NOTE: "FAIR" INDICATES FEW OR NO CLOUDS BELOW 12,000 FEET WITH NO
SIGNIFICANT WEATHER AND/OR OBSTRUCTION TO VISIBILITY.

MIZ047>049-052>055-059>063-066>070-074>076-081>083-201600-
SOUTHEAST LOWER MICHIGAN

CITY           SKY/WX    TMP DP  RH WIND       PRES   REMARKS
ADRIAN         SUNNY     75  63  66 SW6       30.11S
ALMA           SUNNY     74  60  60 SW6       30.09S
ANN ARBOR      SUNNY     76  63  64 SE5       30.10S
BAD AXE        SUNNY     75  59  58 W9        30.09R
CARO           SUNNY     76  58  53 SW5       30.08S
DETROIT CITY   SUNNY     77  61  57 S8        30.09S
DETROIT        MOSUNNY   77  63  61 S9        30.10F
FLINT          SUNNY     75  59  57 SW7       30.09F
GROSSE ILE     SUNNY     75  64  69 S5        30.09S
HILLSDALE      SUNNY     73  61  64 S5        30.11R
HOWELL         SUNNY     76  59  56 S3        30.10S

CITY           SKY/WX    TMP DP  RH WIND       PRES   REMARKS
JACKSON        SUNNY     76  60  57 S7        30.10R
LAMBERTVILLE   SUNNY     78  61  56 SW5       30.09F
LANSING        SUNNY     76  56  49 S5        30.09S
LAPEER         FAIR      76  55  47 SW3       30.10S
MASON          SUNNY     77  60  54 SW5       30.10R
MONROE         SUNNY     77  64  63 SW3       30.09F
MT. CLEMENS    SUNNY     79  64  58 S3        30.08S
PONTIAC        MOSUNNY   76  60  57 SW6       30.09F
PORT HOPE        N/A     75  63  66 W9        30.05S
PORT HURON     SUNNY     77  61  57 SW3       30.10S
TRI CITIES     SUNNY     74  63  68 SW7       30.08S
MIDLAND        FAIR      76  59  55 W5        30.07S
TROY           SUNNY     77  58  52 SW5       30.11S
SAGINAW HB     SUNNY     72  59  64 SW7       30.07S
$$
MIZ043>046-050>051-056>058-064>065-071>073-077>080-201600-
SOUTHWEST LOWER MICHIGAN

CITY           SKY/WX    TMP DP  RH WIND       PRES   REMARKS
BATTLE CREEK   SUNNY     76  62  62 SW6       30.10R
BENTON HARBOR  MOSUNNY   78  60  53 S6        30.07R
BIG RAPIDS     SUNNY     74  58  56 W8        30.07R
COLDWATER      SUNNY     77  60  55 SE8       30.10R
FREMONT        FAIR      73  64  73 S7        30.06S
HOLLAND        CLOUDY    74  63  68 SW5       30.08R
GRAND RAPIDS   PTSUNNY   75  60  59 VRB6      30.08R
IONIA          FAIR      74  57  54 S5        30.08R
KALAMAZOO      SUNNY     77  60  55 S8        30.09R
LUDINGTON      SUNNY     74  63  67 SW9       30.05R
MARSHALL       SUNNY     77  61  56 SW6       30.09S
MOUNT PLEASANT SUNNY     78  57  47 SW5       30.06S
MUSKEGON       CLOUDY    79  61  53 SW9       30.07R
SOUTH HAVEN    SUNNY     77  63  60 S5        30.08R
$$
MIZ016>042-201600-
NORTHERN LOWER MICHIGAN

CITY           SKY/WX    TMP DP  RH WIND       PRES   REMARKS
ALPENA         SUNNY     77  65  66 W6        30.02F
BEAVER ISLAND  SUNNY     74  64  71 SW9       30.01R
BELLAIRE       SUNNY     74  63  68 SW3       30.02S
CADILLAC       SUNNY     75  62  63 SW8       30.06F
CHARLEVOIX     SUNNY     75  65  70 S6        30.04S
FRANKFORT      CLOUDY    75  65  69 SW5       30.03R
GAYLORD        SUNNY     73  61  65 W7        30.05S
GRAYLING       SUNNY     75  61  60 W6        30.06S
HARBOR SPRINGS SUNNY     73  65  74 W3        30.01F
HOUGHTON LAKE  SUNNY     73  62  68 W5        30.07S
MANISTEE       MOSUNNY   76  64  66 SW6       30.03S
OSCODA         SUNNY     79  62  54 W7        30.04R
PELLSTON       SUNNY     76  64  66 W6        30.01S
ROGERS CITY    MOSUNNY   75  64  70 CALM      30.02S
TRAVERSE CITY  MOSUNNY   77  63  61 S5        30.01S
$$
MIZ007>008-015-201600-
EASTERN UPPER MICHIGAN

CITY           SKY/WX    TMP DP  RH WIND       PRES   REMARKS
MACKINAC ISLAN SUNNY     71  67  87 W10G16    30.00S
NEWBERRY       SUNNY     71  67  89 S7        29.98S
S. S. MARIE    CLOUDY    65  64  97 VRB5      29.99S FOG
MUNISING         N/A     76  66  71 VRB5      29.94F
$$
MIZ004>006-011>014-085-201600-
CENTRAL UPPER MICHIGAN

CITY           SKY/WX    TMP DP  RH WIND       PRES   REMARKS
MANISTIQUE     SUNNY     71  65  81 S6        29.98S
ESCANABA       SUNNY     73  63  70 S7        29.98S
MENOMINEE      CLOUDY    73  63  70 W8        30.00S
SAWYER-GWINN   SUNNY     72  61  68 SW10      29.97S
$$
MIZ001>003-009>011-084-201600-
WESTERN UPPER MICHIGAN

CITY           SKY/WX    TMP DP  RH WIND       PRES   REMARKS
IRON MOUNTAIN  SUNNY     74  59  59 SW10      29.97S
HOUGHTON       SUNNY     75  64  69 VRB6      29.89F
COPPER HARBOR    N/A     75  62  64 VRB6      29.87F
IRONWOOD       SUNNY     72  63  73 S12       29.90F
$$

ABBREVIATIONS USED IN REMARKS
   TC - TEMPERATURE IN CELSIUS
  WCI - WIND CHILL INDEX
   HX - HEAT INDEX
  VSB - VISIBILITY




USA.gov is the U.S. government's official web portal to all federal, state and local government web resources and services.